When you browse on this site, cookies collect data to enhance your experience and personalize the content and advertising you see.
Visit our Privacy Policy to learn more. By continuing to use the site, you agree to this use of cookies and data.
  • En España
  • Lista de países
  • Para 7 días
  • Temperatura del agua
  • Mapa Satelital
  • El tiempo en el mapa
  • Informadores
  • user-avatar
    Iniciar sesión

    Tiempo cada hora Mauritius

    Hoy, 20 Marzo, Miércoles

    Tiempo Temperatura Precipitaciones Viento Presión Humedad
    00:00 +26°C° 0 mm 5 mps 722 mmHg 83%
    01:00 +26°C° 0 mm 5 mps 722 mmHg 84%
    02:00 +26°C° 0 mm 5 mps 722 mmHg 84%
    03:00 +26°C° 0 mm 5 mps 721 mmHg 84%
    04:00 +26°C° 0 mm 5 mps 721 mmHg 83%
    05:00 +26°C° 0 mm 5 mps 721 mmHg 83%
    06:00 +26°C° 0 mm 5 mps 722 mmHg 82%
    07:00 +26°C° 0 mm 6 mps 722 mmHg 82%
    08:00 +27°C° 0 mm 6 mps 722 mmHg 77%
    09:00 +28°C° 0 mm 6 mps 722 mmHg 72%
    10:00 +29°C° 0 mm 6 mps 722 mmHg 68%
    11:00 +30°C° 0 mm 6 mps 722 mmHg 67%
    12:00 +30°C° 0 mm 6 mps 722 mmHg 66%
    13:00 +30°C° 0 mm 6 mps 722 mmHg 65%
    14:00 +30°C° 0.1 mm 6 mps 721 mmHg 67%
    15:00 +29°C° 0.1 mm 6 mps 721 mmHg 69%
    16:00 +29°C° 0.1 mm 5 mps 721 mmHg 71%
    17:00 +28°C° 0.1 mm 5 mps 721 mmHg 74%
    18:00 +28°C° 0.1 mm 5 mps 721 mmHg 78%
    19:00 +27°C° 0.1 mm 5 mps 721 mmHg 82%
    20:00 +27°C° 0.2 mm 5 mps 721 mmHg 82%
    21:00 +27°C° 0.2 mm 5 mps 722 mmHg 83%
    22:00 +26°C° 0.2 mm 5 mps 722 mmHg 84%
    23:00 +26°C° 0.3 mm 5 mps 722 mmHg 84%

    Mañana, 21 Marzo, Jueves

    Tiempo Temperatura Precipitaciones Viento Presión Humedad
    00:00 +26°C° 0.3 mm 5 mps 722 mmHg 84%
    01:00 +26°C° 0.3 mm 5 mps 721 mmHg 84%
    02:00 +26°C° 0 mm 5 mps 721 mmHg 85%
    03:00 +26°C° 0 mm 5 mps 721 mmHg 85%
    04:00 +26°C° 0 mm 5 mps 720 mmHg 85%
    05:00 +26°C° 0 mm 5 mps 721 mmHg 84%
    06:00 +26°C° 0 mm 5 mps 721 mmHg 84%
    07:00 +26°C° 0 mm 5 mps 721 mmHg 83%
    08:00 +27°C° 0 mm 5 mps 721 mmHg 79%
    09:00 +28°C° 0 mm 5 mps 722 mmHg 74%
    10:00 +29°C° 0 mm 5 mps 722 mmHg 69%
    11:00 +30°C° 0 mm 5 mps 722 mmHg 67%
    12:00 +30°C° 0 mm 5 mps 722 mmHg 65%
    13:00 +30°C° 0 mm 5 mps 721 mmHg 63%
    14:00 +30°C° 0 mm 5 mps 721 mmHg 65%
    15:00 +30°C° 0 mm 5 mps 721 mmHg 66%
    16:00 +29°C° 0 mm 5 mps 720 mmHg 68%
    17:00 +28°C° 0 mm 5 mps 721 mmHg 72%
    18:00 +27°C° 0 mm 5 mps 721 mmHg 77%
    19:00 +27°C° 0 mm 5 mps 721 mmHg 81%
    20:00 +26°C° 0 mm 5 mps 721 mmHg 82%
    21:00 +26°C° 0 mm 5 mps 722 mmHg 83%
    22:00 +26°C° 0 mm 6 mps 722 mmHg 84%
    23:00 +26°C° 0 mm 5 mps 722 mmHg 83%

    Pasado mañana, 22 Marzo, Viernes

    Tiempo Temperatura Precipitaciones Viento Presión Humedad
    00:00 +26°C° 0 mm 5 mps 722 mmHg 83%
    01:00 +26°C° 0 mm 5 mps 721 mmHg 83%
    02:00 +26°C° 0 mm 5 mps 721 mmHg 84%
    03:00 +26°C° 0 mm 5 mps 721 mmHg 84%
    04:00 +26°C° 0 mm 4 mps 720 mmHg 84%
    05:00 +26°C° 0 mm 5 mps 721 mmHg 84%
    06:00 +26°C° 0 mm 5 mps 721 mmHg 84%
    07:00 +26°C° 0 mm 5 mps 721 mmHg 84%
    08:00 +27°C° 0.1 mm 5 mps 721 mmHg 80%
    09:00 +28°C° 0.1 mm 5 mps 722 mmHg 76%
    10:00 +29°C° 0.1 mm 6 mps 722 mmHg 72%
    11:00 +29°C° 0.4 mm 6 mps 722 mmHg 71%
    12:00 +29°C° 0.4 mm 6 mps 721 mmHg 70%
    13:00 +29°C° 0.4 mm 6 mps 721 mmHg 70%
    14:00 +29°C° 0.7 mm 6 mps 721 mmHg 72%
    15:00 +29°C° 0.7 mm 6 mps 721 mmHg 74%
    16:00 +28°C° 0.7 mm 6 mps 720 mmHg 76%
    17:00 +28°C° 0.4 mm 5 mps 721 mmHg 78%
    18:00 +27°C° 0.4 mm 5 mps 721 mmHg 81%
    19:00 +26°C° 0.4 mm 5 mps 721 mmHg 83%
    20:00 +26°C° 0 mm 5 mps 721 mmHg 83%
    21:00 +26°C° 0 mm 5 mps 722 mmHg 83%
    22:00 +26°C° 0 mm 5 mps 722 mmHg 83%
    23:00 +26°C° 0 mm 5 mps 722 mmHg 83%

    23 Marzo, Sábado

    Tiempo Temperatura Precipitaciones Viento Presión Humedad
    00:00 +26°C° 0 mm 5 mps 722 mmHg 83%
    01:00 +26°C° 0 mm 5 mps 721 mmHg 82%
    02:00 +26°C° 0 mm 5 mps 721 mmHg 83%
    03:00 +26°C° 0 mm 5 mps 720 mmHg 84%
    04:00 +26°C° 0 mm 5 mps 720 mmHg 84%
    05:00 +26°C° 0 mm 5 mps 720 mmHg 84%
    06:00 +26°C° 0 mm 5 mps 721 mmHg 84%
    07:00 +26°C° 0 mm 5 mps 721 mmHg 83%
    08:00 +27°C° 0.1 mm 5 mps 721 mmHg 80%
    09:00 +28°C° 0.1 mm 5 mps 722 mmHg 76%
    10:00 +29°C° 0.1 mm 6 mps 722 mmHg 73%
    11:00 +29°C° 0.4 mm 6 mps 722 mmHg 72%
    12:00 +29°C° 0.4 mm 6 mps 721 mmHg 72%
    13:00 +29°C° 0.4 mm 6 mps 721 mmHg 72%
    14:00 +29°C° 0.3 mm 5 mps 721 mmHg 72%
    15:00 +29°C° 0.3 mm 5 mps 720 mmHg 72%
    16:00 +29°C° 0.3 mm 5 mps 720 mmHg 73%
    17:00 +28°C° 0.1 mm 5 mps 720 mmHg 76%
    18:00 +27°C° 0.1 mm 5 mps 720 mmHg 79%
    19:00 +26°C° 0.1 mm 6 mps 721 mmHg 82%
    20:00 +26°C° 0.1 mm 5 mps 721 mmHg 83%
    21:00 +26°C° 0.1 mm 5 mps 721 mmHg 83%
    22:00 +26°C° 0.1 mm 4 mps 721 mmHg 83%
    23:00 +26°C° 0 mm 4 mps 721 mmHg 83%

    24 Marzo, Domingo

    Tiempo Temperatura Precipitaciones Viento Presión Humedad
    00:00 +26°C° 0 mm 4 mps 720 mmHg 84%
    01:00 +26°C° 0 mm 4 mps 720 mmHg 84%
    02:00 +26°C° 0.1 mm 4 mps 720 mmHg 84%
    03:00 +26°C° 0.1 mm 4 mps 720 mmHg 84%
    04:00 +26°C° 0.1 mm 4 mps 719 mmHg 84%
    05:00 +26°C° 0 mm 4 mps 719 mmHg 84%
    06:00 +26°C° 0 mm 4 mps 720 mmHg 84%
    07:00 +26°C° 0 mm 4 mps 720 mmHg 84%
    08:00 +27°C° 0.2 mm 4 mps 720 mmHg 80%
    09:00 +28°C° 0.2 mm 5 mps 721 mmHg 76%
    10:00 +29°C° 0.2 mm 5 mps 721 mmHg 71%
    11:00 +29°C° 0.5 mm 5 mps 720 mmHg 71%
    12:00 +29°C° 0.5 mm 5 mps 720 mmHg 70%
    13:00 +30°C° 0.5 mm 5 mps 719 mmHg 69%
    14:00 +29°C° 0.4 mm 5 mps 719 mmHg 71%
    15:00 +29°C° 0.4 mm 5 mps 719 mmHg 73%
    16:00 +28°C° 0.4 mm 6 mps 718 mmHg 74%
    17:00 +28°C° 0.3 mm 5 mps 719 mmHg 77%
    18:00 +27°C° 0.3 mm 5 mps 719 mmHg 80%
    19:00 +26°C° 0.3 mm 5 mps 719 mmHg 83%
    20:00 +26°C° 0 mm 5 mps 719 mmHg 83%
    21:00 +26°C° 0 mm 5 mps 720 mmHg 83%
    22:00 +26°C° 0 mm 5 mps 720 mmHg 83%
    23:00 +26°C° 0 mm 5 mps 719 mmHg 84%

    25 Marzo, Lunes

    Tiempo Temperatura Precipitaciones Viento Presión Humedad
    00:00 +26°C° 0 mm 4 mps 719 mmHg 84%
    01:00 +26°C° 0 mm 4 mps 719 mmHg 84%
    02:00 +26°C° 0.1 mm 4 mps 719 mmHg 84%
    03:00 +26°C° 0.1 mm 4 mps 718 mmHg 85%
    04:00 +26°C° 0.1 mm 4 mps 718 mmHg 85%
    05:00 +26°C° 0 mm 4 mps 718 mmHg 84%
    06:00 +26°C° 0 mm 4 mps 719 mmHg 84%
    07:00 +26°C° 0 mm 4 mps 719 mmHg 84%
    08:00 +27°C° 0 mm 4 mps 719 mmHg 80%
    09:00 +28°C° 0 mm 4 mps 719 mmHg 75%
    10:00 +29°C° 0 mm 4 mps 720 mmHg 71%
    11:00 +29°C° 0.3 mm 3 mps 719 mmHg 70%
    12:00 +30°C° 0.3 mm 3 mps 719 mmHg 69%
    13:00 +30°C° 0.3 mm 3 mps 719 mmHg 67%
    14:00 +30°C° 0.4 mm 3 mps 719 mmHg 69%
    15:00 +29°C° 0.4 mm 4 mps 718 mmHg 70%
    16:00 +29°C° 0.4 mm 4 mps 718 mmHg 72%
    17:00 +28°C° 0.4 mm 4 mps 719 mmHg 75%
    18:00 +28°C° 0.4 mm 4 mps 719 mmHg 79%
    19:00 +27°C° 0.4 mm 4 mps 719 mmHg 83%
    20:00 +27°C° 0.1 mm 4 mps 720 mmHg 84%
    21:00 +26°C° 0.1 mm 4 mps 720 mmHg 84%
    22:00 +26°C° 0.1 mm 4 mps 720 mmHg 84%
    23:00 +26°C° 0 mm 4 mps 720 mmHg 85%
    Mostrar más